Regional Weather Roundup
Issued by NWS

Home | Current Version | Previous Version | Graphics & Text | Print | Product List | Glossary On
Versions: 1 2 3 4 5 6 7 8 9 10 11 12 13 14 15 16 17 18 19 20 21 22 23 24 25 26 27 28 29 30 31 32 33 34 35 36 37 38 39 40 41 42 43 44 45 46 47 48 49 50
378
ASUS43 KBIS 271810
RWRND

NORTH DAKOTA REGIONAL WEATHER ROUNDUP
NATIONAL WEATHER SERVICE BISMARCK ND
100 PM CDT SAT AUG 27 2016

NOTE: "FAIR" INDICATES FEW OR NO CLOUDS BELOW 12,000 FEET WITH NO
SIGNIFICANT WEATHER AND/OR OBSTRUCTIONS TO VISIBILITY.


NDZ001>003-009>011-017-271900-
NORTHWEST NORTH DAKOTA

CITY           SKY/WX    TMP DP  RH WIND       PRES   REMARKS
WILLISTON      SUNNY     74  45  35 VRB7      29.87F
6HR MIN TEMP:  44; 6HR MAX TEMP:  74;

MINOT          SUNNY     73  49  42 VRB3      29.89F
MINOT AFB      SUNNY     72  45  37 VRB1      29.88S
$$

NDZ018>021-031>035-040>046-271900-
SOUTHWEST NORTH DAKOTA

CITY           SKY/WX    TMP DP  RH WIND       PRES   REMARKS
BISMARCK       SUNNY     73  49  42 VRB3      29.92F
6HR MIN TEMP:  48; 6HR MAX TEMP:  73;

DICKINSON      SUNNY     73  41  31 S7        29.90F
GARRISON         N/A     72  48  42 VRB5      29.91S
6HR MIN TEMP:  50; 6HR MAX TEMP:  73;

HETTINGER ARPT SUNNY     73  50  44 S6        29.94F
$$

NDZ004>008-012>016-024-026-027-054-271900-
NORTHEAST NORTH DAKOTA

CITY           SKY/WX    TMP DP  RH WIND       PRES   REMARKS
GRAND FORKS    PTSUNNY   64  59  83 S10       29.92F
GRND FRKS AFB  CLOUDY    66  59  77 S10       29.91F
$$

NDZ022-023-025-028>030-036>039-047>053-271900-
SOUTHEAST NORTH DAKOTA

CITY           SKY/WX    TMP DP  RH WIND       PRES   REMARKS
FARGO          CLOUDY    70  60  70 S15       29.92F
6HR MIN TEMP:  61; 6HR MAX TEMP:  73; 6HR PCP: TRACE;

JAMESTOWN      MOSUNNY   72  60  66 S9        29.92S
$$





USA.gov is the U.S. government's official web portal to all federal, state and local government web resources and services.